Content
SEND FEEDBACK

Daily
Averages
Monthly
Summary
United States of America

GREENSBURG, INDIANA


Home > North America > United States > Indiana
Elevation: 949 feet     Latitude: 39 20N     Longitude: 085 28W

WEATHER
 
SELECT A DAY
Number of Records: 173,019;   Date Range: 10/15/98 - 8/28/14
 
SHARE

PRINT THIS DATA

[ ← Previous Day ]
WEATHER ALMANAC - DECEMBER 18, 2013
[ Next Day → ]
[ °C ]   °F
Weather ElementAverageHighLow
Temperature27.1 °F35.1 °F (7:53 pm)15.1 °F (7:53 am)
Dewpoint15.8 °F19.9 °F (3:53 pm)9 °F (7:53 am)
Humidity63.3 %81 % (1:53 am)50 % (4:53 pm)
Barometer30.18 in30.29 in (9:53 am)30.04 in (10:53 pm)
Wind Speed10 mph16.1 mph (5:53 pm)
Weather ElementAverage
Visibility10 mi
Wind DirectionSSW (208.3 °)

Weather ElementTotal
Precipitation---
Heating Degree Days39.9 (Base 65)
Averaged from 23 records on December 18, 2013
WEATHER CONDITIONS BREAKOUT
WIND DIRECTION BREAKOUT
WEATHER BY HOUR - DECEMBER 18, 2013
[ °C ]   °F
Local TimeTemperatureDewpointHumidityBarometerVisibilityWind DirectionWind SpeedGust SpeedPrecipitationEventsConditions
1:53 AM23.0 °F18.0 °F81 %30.18 in10.0 miWSW (250°)9.2 mphClear
2:53 AM21.9 °F15.1 °F75 %30.20 in10.0 miWest (260°)6.9 mphClear
3:53 AM21.0 °F14.0 °F74 %30.20 in10.0 miWSW (240°)6.9 mphClear
4:53 AM19.9 °F12.9 °F74 %30.21 in10.0 miWest (260°)6.9 mphClear
5:53 AM18.0 °F10.9 °F74 %30.22 in10.0 miWSW (240°)6.9 mphClear
6:53 AM19.0 °F12.0 °F74 %30.24 in10.0 miWSW (240°)8.1 mphClear
7:53 AM15.1 °F9.0 °F77 %30.26 in10.0 miWSW (240°)6.9 mphClear
8:53 AM17.1 °F10.0 °F74 %30.28 in10.0 miSW (230°)5.8 mphClear
9:53 AM19.9 °F12.0 °F71 %30.29 in10.0 miSW (230°)9.2 mphClear
10:53 AM24.1 °F14.0 °F65 %30.29 in10.0 miSW (220°)9.2 mphClear
11:53 AM27.0 °F16.0 °F63 %30.28 in10.0 miSSW (210°)9.2 mphClear
12:53 PM28.9 °F15.1 °F56 %30.26 in10.0 miSW (220°)8.1 mphClear
1:53 PM30.9 °F18.0 °F59 %30.24 in10.0 miSouth (180°)5.8 mphClear
2:53 PM32.0 °F19.0 °F59 %30.21 in10.0 miSSE (160°)8.1 mphClear
3:53 PM33.1 °F19.9 °F59 %30.18 in10.0 miSouth (170°)11.5 mphClear
4:53 PM34.0 °F17.1 °F50 %30.15 in10.0 miSouth (170°)13.8 mphClear
5:53 PM33.1 °F18.0 °F54 %30.11 in10.0 miSouth (170°)16.1 mphClear
6:53 PM34.0 °F18.0 °F52 %30.09 in10.0 miSouth (170°)11.5 mphClear
7:53 PM35.1 °F18.0 °F50 %30.07 in10.0 miSouth (180°)13.8 mphClear
8:53 PM35.1 °F19.0 °F52 %30.06 in10.0 miSouth (190°)15.0 mphClear
9:53 PM35.1 °F19.0 °F52 %30.05 in10.0 miSouth (180°)13.8 mphClear
10:53 PM34.0 °F19.0 °F54 %30.04 in10.0 miSouth (190°)15.0 mphClear
11:53 PM33.1 °F19.0 °F56 %30.05 in10.0 miSouth (190°)11.5 mphClear
Hourly data recorded from KGEZ, located miles away from Greensburg, Indiana







STORIES FROM OUR PARTNERS